Regional Weather Roundup
Issued by NWS

Home | Current Version | Previous Version | Graphics & Text | Print | Product List | Glossary On
Versions: 1 2 3 4 5 6 7 8 9 10 11 12 13 14 15 16 17 18 19 20 21 22 23 24 25 26 27 28 29 30 31 32 33 34 35 36 37 38 39 40 41 42 43 44 45 46 47 48 49 50
000
ASUS43 KMKX 062100
RWRWI

WISCONSIN REGIONAL WEATHER ROUNDUP
NATIONAL WEATHER SERVICE MILWAUKEE/SULLIVAN WI
300 PM CST SAT FEB 06 2016

NOTE: "FAIR" INDICATES FEW OR NO CLOUDS BELOW 12,000 FEET WITH NO
SIGNIFICANT WEATHER AND/OR OBSTRUCTIONS TO VISIBILITY.

WIZ001-002-006>008-014>016-023>028-062200-
NORTHWEST WISCONSIN

CITY           SKY/WX    TMP DP  RH WIND       PRES   REMARKS
SUPERIOR ARPT  CLOUDY    37  25  64 SW10G17   29.86F WCI  29
ASHLAND        CLOUDY    36  23  59 S10G21    29.88F WCI  28
HAYWARD        PTSUNNY   33  22  63 S15       29.91F WCI  23
SIREN          CLOUDY    34  25  68 S9        29.92F WCI  27
CUMBERLAND     CLOUDY    32  23  69 S13       29.94F WCI  22
RICE LAKE      CLOUDY    32  23  70 S14       29.98F WCI  22
CHETEK         CLOUDY    32  23  70 S10       29.97F WCI  23
LADYSMITH      SUNNY     33  23  65 S9        29.98F WCI  25
EAU CLAIRE     NOT AVBL
MENOMONIE      MOSUNNY   37  25  62 S12       30.00F WCI  29
NEW RICHMOND   CLOUDY    32  25  74 S15G21    29.96F WCI  22
OSCEOLA        CLOUDY    33  27  76 S12G20    29.98F WCI  25
$$

WIZ003>005-009-010-017-018-062200-
NORTH CENTRAL WISCONSIN

CITY           SKY/WX    TMP DP  RH WIND       PRES   REMARKS
MANITOWISH WTR CLOUDY    29  20  68 S10       29.91F WCI  20
ARBOR VITAE    CLOUDY    32  22  68 S10       29.93F WCI  23
WOODRUFF       CLOUDY    32  22  68 S10       29.93F WCI  23
RHINELANDER    CLOUDY    30  20  66 SW9       29.96F WCI  22
EAGLE RIVER    CLOUDY    29  18  63 SW10      29.94F WCI  20
LAND O LAKES   CLOUDY    30  19  64 SW8       29.94F WCI  22
PHILLIPS       CLOUDY    32  21  64 SW12      29.94F WCI  23
TOMAHAWK       CLOUDY    32  20  61 S5        29.97F WCI  28
MEDFORD        MOSUNNY   30  22  72 S13       29.99F WCI  20
MERRILL        PTSUNNY   32  23  69 SW12      30.00F WCI  23
$$

WIZ029-030-035-036-043>047-062200-
CENTRAL WISCONSIN

CITY           SKY/WX    TMP DP  RH WIND       PRES   REMARKS
WAUSAU         CLOUDY    33  22  63 SW13      30.00F WCI  24
MOSINEE        MOSUNNY   30  25  80 S10       30.03F WCI  21
MARSHFIELD     SUNNY     34  21  59 SW9       30.01F WCI  27
STEVENS POINT  CLOUDY    31  23  71 SW10      30.05F WCI  22
WAUPACA        CLOUDY    34  25  69 SW9       30.07F WCI  27
WAUTOMA        NOT AVBL
WISC RAPIDS    SUNNY     33  22  63 SW12      30.06F WCI  24
CAMP DOUGLAS   NOT AVBL
$$

WIZ011>013-019>022-031-037>040-048>050-062200-
NORTHEAST WISCONSIN

CITY           SKY/WX    TMP DP  RH WIND       PRES   REMARKS
ANTIGO         CLOUDY    28  22  79 SW12      30.00F WCI  17
SHAWANO        CLOUDY    32  25  74 SW6       30.06F WCI  26
OCONTO         CLOUDY    30  24  77 SW10      30.06F WCI  21
STURGEON BAY   CLOUDY    28  21  74 W10       30.08S WCI  19
GREEN BAY      CLOUDY    30  24  78 SW9       30.08F WCI  22
MANITOWOC      NOT AVBL
APPLETON       CLOUDY    30  23  74 SW12      30.07F WCI  21
CLINTONVILLE   CLOUDY    32  23  69 W9        30.07F WCI  24
OSHKOSH        CLOUDY    31  24  75 SW8       30.09F WCI  23
$$

WIZ032>034-041-042-053>061-062200-
SOUTHWEST WISCONSIN

CITY           SKY/WX    TMP DP  RH WIND       PRES   REMARKS
LA CROSSE      SUNNY     32  24  72 SW16      30.09F WCI  21
SPARTA         SUNNY     35  24  63 SW7       30.08F WCI  30
VIROQUA        SUNNY     32  25  74 SW10      30.07F WCI  24
BOSCOBEL       SUNNY     36  25  64 SW10      30.12F WCI  28
PRAIRIE DU CHI MOSUNNY   33  24  70 SW8       30.13F WCI  26
PLATTEVILLE    CLOUDY    32  29  89 SW10      30.13F WCI  23
$$

WIZ056-057-062-063-064-067-068-062200-
SOUTH CENTRAL WISCONSIN

CITY           SKY/WX    TMP DP  RH WIND       PRES   REMARKS
REEDSBURG      CLOUDY    33  25  73 SW12      30.09F WCI  24
BARABOO/DELLS  CLOUDY    33  24  71 SW8       30.09F WCI  26
LONE ROCK      NOT AVBL
MINERAL POINT  CLOUDY    32  30  93 SW10      30.11F WCI  24
MADISON        PTSUNNY   32  25  75 SW8       30.11F WCI  25
MIDDLETON      CLOUDY    33  27  76 SW13      30.11F WCI  24
WATERTOWN      CLOUDY    32  28  83 SW9       30.12S WCI  24
MONROE         CLOUDY    32  30  93 W10       30.12S WCI  24
JANESVILLE     MOSUNNY   36  28  75 W7        30.13F WCI  30
$$

WIZ051-052-058>065-066-070>072-062200-
SOUTHEAST WISCONSIN

CITY           SKY/WX    TMP DP  RH WIND       PRES   REMARKS
MILWAUKEE      CLOUDY    33  26  75 W14G22    30.13F WCI  23
WAUKESHA       CLOUDY    30  25  80 SW15      30.13F WCI  19
MILWAUKEE/TIMM CLOUDY    34  25  69 SW14      30.13F WCI  24
RACINE         CLOUDY    34  26  72 W12       30.15F WCI  25
BURLINGTON     MOSUNNY   33  26  76 W8        30.14S WCI  26
KENOSHA        MOSUNNY   36  28  73 W12       30.14F WCI  28
FOND DU LAC    CLOUDY    32  24  72 SW12      30.09F WCI  23
SHEBOYGAN      CLOUDY    31  24  75 W13       30.10F WCI  21
WEST BEND      CLOUDY    32  27  80 SW10      30.10S WCI  24
JUNEAU         CLOUDY    31  25  78 SW10      30.12F WCI  22
$$

LSZ147-162-062200-
LAKE SUPERIOR

STATION/POSITION TIME  TEMP    WIND        PRES    WAVE
                       AIR SEA DIR/SP/G            HT/PER
                 (UTC) (F)     (DEG/KT/KT) (MB)    (FT/S)
DEVILS ISLAND    2000   31     180/  6/ 10 1013.5F
SAXON HARBOR     2000   36                 1012.5
$$

LMZ867-665-643>646-062200-
LAKE MICHIGAN

STATION/POSITION TIME  TEMP    WIND        PRES    WAVE
                       AIR SEA DIR/SP/G            HT/PER
                 (UTC) (F)     (DEG/KT/KT) (MB)    (FT/S)
CHAMBERS ISLAND  2000   29     230/  5/ 13 1017.9F
ALGOMA LAKESHORE 2011          250/ 12/ 16   N/A
KEWAUNEE LAKESHO 2000   30     260/  9/ 15 1018.0F
SHEBOYGAN LAKESH 2000   31     250/ 11/ 14 1020.8F
PORT WASHINGTON  2040   34     250/ 10/ 14 1020.7F
MILWAUKEE LAKESH 2010   33     270/ 11/ 13   N/A
KENOSHA   LAKESH 2000   34     260/ 15/ 19 1021.0F
$$

TC  - TEMPERATURE IN CELSIUS
VSB - VISIBILITY IN STATUTE MILES
WCI - WIND CHILL INDEX
HX  - HEAT INDEX




USA.gov is the U.S. government's official web portal to all federal, state and local government web resources and services.